#timestamp,LO_Frequency,Hit,StdDev 
1584347755.7,286046924.9,P
1584347775.6,286046925.7,P
1584347795.4,286046925.8,P
1584347815.3,286046922.9,Y
1584347835.1,286046997.0,P
1584347855.8,286046996.9,N
1584347875.7,286046997.7,N
1584347895.5,286046996.1,N
1584347915.4,286046996.1,N
1584347935.2,286046996.4,N
1584347955.0,286046993.9,N
1584347955.9,286046993.9,N
1584347975.8,286046992.9,N
1584347995.6,286046990.9,N
1584348015.4,286046991.1,N
1584348035.3,286046991.5,N
1584348055.1,286046989.5,N
1584348075.9,286046988.1,N
1584348095.7,286046988.0,N
1584348115.5,286046986.0,N
1584348135.4,286046986.2,N
1584348155.2,286046984.2,N
1584348175.0,286046985.2,N
1584348175.9,286046985.2,N
1584348195.8,286046983.1,N
1584348215.6,286046982.6,N
1584348235.5,286046982.4,N
1584348255.3,286046980.5,N
1584348275.1,286046983.5,N
1584348325.9,286046977.3,E
1584348335.8,286046987.1,N
1584348355.6,286047002.3,P
1584348375.5,286047001.0,N
1584348395.3,286046998.6,N
1584348415.1,286046999.1,N
1584348435.9,286046996.7,N
1584348455.7,286046997.5,N
1584348475.6,286046995.2,N
1584348495.4,286046996.4,N
1584348515.2,286046996.3,N
1584348535.1,286046994.8,N
1584348536.0,286046994.8,N
1584348555.8,286046993.0,N
1584348575.6,286046990.8,N
1584348595.5,286046990.6,N
1584348615.3,286046990.8,N
1584348635.2,286046989.5,N
1584348655.9,286046987.0,Y
1584348675.7,286046991.8,P
1584348695.6,286046994.7,P
1584348715.4,286046992.4,P
1584348735.3,286046990.6,Y
1584348755.1,286046994.9,P
1584348756.0,286046994.9,P
1584348775.8,286046995.9,P
1584348795.7,286046995.8,Y
1584348815.5,286047000.9,P
1584348835.4,286047000.5,N
1584348855.2,286046999.5,N
1584348875.0,286046997.7,N
1584348875.9,286046997.7,N
1584348895.8,286046997.9,N
1584348915.6,286046995.3,N
1584348935.5,286046995.8,N
1584348955.3,286046996.2,N
1584348975.1,286046993.8,Y
1584348995.9,286046996.0,P
1584349015.7,286046994.8,P
1584349035.5,286046994.3,P
1584349055.4,286046993.2,Y
1584349075.2,286046997.9,P
1584349095.1,286046993.8,P
1584349096.0,286046993.8,P
1584349115.8,286046994.2,Y
1584349135.6,286046998.0,P
1584349155.5,286046993.7,P
1584349175.3,286046991.8,P
1584349195.2,286046992.1,Y
